{"data":{"norad_id":66589,"epoch":"2026-05-24T23:31:43.364064Z","epoch_age_seconds":66985,"freshness":"FRESH","line1":"1 66589U 25270B   26144.98036301  .00017594  00000+0  64703-3 0  9995","line2":"2 66589  43.0016 345.3298 0001106 264.5974  95.4751 15.27595903 29489","mean_motion":15.27595903,"eccentricity":0.0001106,"inclination_deg":43.0016,"raan_deg":345.3298,"arg_perigee_deg":264.5974,"mean_anomaly_deg":95.4751,"bstar":0.00064703,"rev_number":2948,"period_min":94.265767351957,"perigee_km":482.24263523412,"apogee_km":483.76031906527,"semimajor_km":6861.1384771497,"source":"CELESTRAK","updated_at":"2026-05-25T13:38:21.286709Z"}}